Location: Newark
(52.1752°N, 10.4140°W)
Time: 04:28:25
(UTC+00:00)

N. Korean satellite - Visible Passes

Search period start: 15 November 2019 00:00
Search period end: 25 November 2019 00:00
Orbit: 456 x 506 km, 97.2° (Epoch: 14 November)

Date Brightness Start Highest point End Pass type
(mag) Time Alt. Az. Time Alt. Az. Time Alt. Az.
15 Nov 8.2 06:16:08 10° NNE 06:19:39 38° E 06:23:08 10° SSE visible
15 Nov 9.3 18:30:47 10° SSW 18:33:44 23° W 18:36:44 10° NW visible
16 Nov 9.4 05:51:10 10° NE 05:54:07 22° E 05:57:01 10° SE visible
16 Nov 7.1 07:24:09 10° N 07:27:39 38° WNW 07:31:06 10° SW visible
16 Nov 8.1 18:04:44 10° S 18:08:12 42° W 18:11:45 10° NNW visible
17 Nov 10.2 05:26:52 10° ENE 05:28:28 12° E 05:30:04 10° ESE visible
17 Nov 6.6 06:58:37 10° N 07:02:21 72° WNW 07:06:01 10° SSW visible
17 Nov 6.7 17:39:06 10° SSE 17:42:45 81° WSW 17:46:29 10° NNW visible
18 Nov 7.3 06:33:14 10° NNE 06:36:57 60° E 06:40:36 10° S visible
18 Nov 9.9 18:48:48 10° SW 18:51:07 16° W 18:53:28 10° NW visible
19 Nov 8.6 06:08:05 10° NNE 06:11:28 32° E 06:14:47 10° SSE visible
19 Nov 8.9 18:22:19 10° SSW 18:25:31 28° W 18:28:46 10° NW visible
20 Nov 9.6 05:43:15 10° NE 05:45:53 18° E 05:48:28 10° SE visible
20 Nov 6.9 07:15:56 10° N 07:19:31 46° WNW 07:23:03 10° SW visible
20 Nov 7.6 17:56:24 10° S 18:00:00 51° W 18:03:39 10° NNW visible
21 Nov 10.3 05:19:54 10° E 05:20:11 10° E 05:20:30 10° E visible
21 Nov 6.6 06:50:26 10° NNE 06:54:10 87° WNW 06:57:51 10° SSW visible
21 Nov 6.6 17:30:54 10° SSE 17:34:34 83° ENE 17:38:19 10° NNW visible
21 Nov 10.3 19:07:37 10° W 19:08:31 11° W 19:09:26 10° WNW visible
22 Nov 7.7 06:25:07 10° NNE 06:28:44 48° E 06:32:18 10° S visible
22 Nov 9.6 18:40:09 10° SW 18:42:51 19° W 18:45:35 10° NW visible
23 Nov 8.9 06:00:01 10° NE 06:03:13 26° E 06:06:20 10° SSE visible
23 Nov 7.4 07:33:19 10° N 07:36:37 31° WNW 07:39:53 10° SW visible
23 Nov 8.5 18:13:53 10° SSW 18:17:15 33° W 18:20:41 10° NNW visible
24 Nov 9.9 05:35:22 10° NE 05:37:35 15° E 05:39:46 10° SE visible
24 Nov 6.7 07:07:41 10° N 07:11:20 56° WNW 07:14:54 10° SSW visible
24 Nov 7.2 17:48:06 10° S 17:51:46 64° W 17:55:29 10° NNW visible
